User: anonymous   Login
Location: Unspecified
(0.0000°N, 0.0000°E)
Time: 18:42:56
(UTC+00:00)
Language:

RBLE - Orbit

View from above orbital plane
View from above orbital plane
View from above satellite
View from above satellite

Ground track
Ground track

The orbit data is extracted from the following two-line orbital elements,

1 43021U 98067NJ  18351.49005579  .00005018  00000-0  66921-4 0  9999
2 43021  51.6379 175.5557 0002949 130.2333 229.8919 15.60074040 61067
Epoch (UTC): 17 December 2018 11:45:40
Eccentricity: 0.0002949
inclination: 51.6379°
perigee height: 385 km
apogee height: 389 km
right ascension of ascending node: 175.5557°
argument of perigee: 130.2333°
revolutions per day: 15.60074040
mean anomaly at epoch: 229.8919°
orbit number at epoch: 6106

The dashed part of the orbit path shows where the satellite is in the earth's shadow,  

DLR